| time (UTC) | temp C | wind direction | speed KPH | gust KPH | rain 1hr cm | rain 24hr cm | rain mn cm | humidity % | barometer mb |
| 20260506073056 | 7 | 89 | 1.6 | 4.8 | 0.00 | 0.00 | 0.00 | 66 | 1009.0 |
| 20260506072553 | 7 | 121 | 0.0 | 3.2 | 0.00 | 0.00 | 0.00 | 65 | 1009.1 |
| 20260506072051 | 7 | 97 | 3.2 | 3.2 | 0.00 | 0.00 | 0.00 | 64 | 1009.0 |
| 20260506071548 | 7 | 69 | 1.6 | 3.2 | 0.00 | 0.00 | 0.00 | 64 | 1008.8 |
| 20260506071046 | 7 | 30 | 0.0 | 6.4 | 0.00 | 0.00 | 0.00 | 63 | 1008.9 |
| 20260506070543 | 7 | 304 | 0.0 | 4.8 | 0.00 | 0.00 | 0.00 | 63 | 1008.8 |
| 20260506062017 | 8 | 129 | 0.0 | 4.8 | 0.00 | 0.00 | 0.00 | 60 | 1008.9 |
| 20260506061513 | 8 | 346 | 1.6 | 8.0 | 0.00 | 0.00 | 0.00 | 60 | 1008.9 |
| 20260506061010 | 8 | 48 | 0.0 | 3.2 | 0.00 | 0.00 | 0.00 | 60 | 1009.1 |
| 20260506060509 | 8 | 92 | 4.8 | 4.8 | 0.00 | 0.00 | 0.00 | 60 | 1009.1 |
| 20260506050938 | 8 | 176 | 1.6 | 8.0 | 0.00 | 0.00 | 0.00 | 59 | 1008.6 |
| 20260506050435 | 8 | 311 | 6.4 | 8.0 | 0.00 | 0.00 | 0.00 | 60 | 1008.7 |
| 20260506044925 | 8 | 38 | 1.6 | 8.0 | 0.00 | 0.00 | 0.00 | 59 | 1008.8 |
| 20260506044424 | 8 | 139 | 4.8 | 4.8 | 0.00 | 0.00 | 0.00 | 59 | 1009.1 |
| 20260506043920 | 8 | 315 | 0.0 | 4.8 | 0.00 | 0.00 | 0.00 | 58 | 1008.8 |
| 20260506043418 | 8 | 33 | 3.2 | 6.4 | 0.00 | 0.00 | 0.00 | 57 | 1008.7 |
| 20260506042915 | 8 | 19 | 0.0 | 6.4 | 0.00 | 0.00 | 0.00 | 58 | 1008.6 |
| 20260506042415 | 8 | 298 | 1.6 | 9.7 | 0.00 | 0.00 | 0.00 | 58 | 1008.7 |
| 20260506041912 | 8 | 119 | 3.2 | 4.8 | 0.00 | 0.00 | 0.00 | 57 | 1008.6 |
| 20260506041410 | 8 | 340 | 1.6 | 4.8 | 0.00 | 0.00 | 0.00 | 57 | 1008.7 |
| 20260506040907 | 8 | 113 | 0.0 | 4.8 | 0.00 | 0.00 | 0.00 | 57 | 1008.6 |
| 20260506040404 | 8 | 83 | 1.6 | 4.8 | 0.00 | 0.00 | 0.00 | 59 | 1008.8 |
| 20260506035900 | 8 | 110 | 0.0 | 3.2 | 0.00 | 0.00 | 0.00 | 58 | 1008.6 |
| 20260506035358 | 8 | 83 | 3.2 | 4.8 | 0.00 | 0.00 | 0.00 | 57 | 1008.7 |
| 20260506034854 | 8 | 115 | 3.2 | 4.8 | 0.00 | 0.00 | 0.00 | 57 | 1008.6 |
| 20260506034352 | 8 | 124 | 0.0 | 3.2 | 0.00 | 0.00 | 0.00 | 57 | 1008.7 |
| 20260506033849 | 8 | 18 | 3.2 | 4.8 | 0.00 | 0.00 | 0.00 | 57 | 1008.8 |
| 20260506033346 | 8 | 75 | 0.0 | 3.2 | 0.00 | 0.00 | 0.00 | 60 | 1008.6 |
| 20260506032843 | 8 | 36 | 1.6 | 3.2 | 0.00 | 0.00 | 0.00 | 59 | 1008.6 |
| 20260506032339 | 8 | 131 | 3.2 | 4.8 | 0.00 | 0.00 | 0.00 | 60 | 1008.5 |
| 20260506031836 | 8 | 140 | 3.2 | 4.8 | 0.00 | 0.00 | 0.00 | 60 | 1008.8 |
| 20260506031333 | 8 | 149 | 1.6 | 3.2 | 0.00 | 0.00 | 0.00 | 59 | 1008.7 |
| 20260506030831 | 8 | 170 | 1.6 | 4.8 | 0.00 | 0.00 | 0.00 | 59 | 1008.9 |
| 20260506030329 | 8 | 129 | 0.0 | 3.2 | 0.00 | 0.00 | 0.00 | 59 | 1008.7 |
| 20260506025825 | 8 | 143 | 1.6 | 4.8 | 0.00 | 0.00 | 0.00 | 59 | 1008.7 |
| 20260506025322 | 8 | 139 | 3.2 | 3.2 | 0.00 | 0.00 | 0.00 | 59 | 1008.6 |
| 20260506024819 | 8 | 119 | 0.0 | 3.2 | 0.00 | 0.00 | 0.00 | 58 | 1008.5 |
| 20260506024316 | 8 | 155 | 0.0 | 3.2 | 0.00 | 0.00 | 0.00 | 57 | 1008.6 |
| 20260506023812 | 8 | 152 | 3.2 | 4.8 | 0.00 | 0.00 | 0.00 | 57 | 1008.6 |
| 20260506023309 | 8 | 160 | 0.0 | 6.4 | 0.00 | 0.00 | 0.00 | 57 | 1008.6 |
| 20260506022805 | 8 | 148 | 3.2 | 4.8 | 0.00 | 0.00 | 0.00 | 57 | 1008.7 |
| 20260506022305 | 8 | 129 | 0.0 | 3.2 | 0.00 | 0.00 | 0.00 | 57 | 1008.5 |
| 20260506021801 | 8 | 110 | 3.2 | 4.8 | 0.00 | 0.00 | 0.00 | 57 | 1008.4 |
| 20260506021258 | 9 | 141 | 0.0 | 4.8 | 0.00 | 0.00 | 0.00 | 57 | 1008.3 |
| 20260506020755 | 9 | 157 | 0.0 | 6.4 | 0.00 | 0.00 | 0.00 | 55 | 1008.7 |
| 20260506020253 | 9 | 139 | 3.2 | 4.8 | 0.00 | 0.00 | 0.00 | 56 | 1008.7 |
| 20260506015750 | 9 | 157 | 1.6 | 4.8 | 0.00 | 0.00 | 0.00 | 56 | 1008.6 |
| 20260506015247 | 9 | 135 | 0.0 | 4.8 | 0.00 | 0.00 | 0.00 | 55 | 1008.5 |
| 20260506014744 | 9 | 174 | 0.0 | 4.8 | 0.00 | 0.00 | 0.00 | 55 | 1008.3 |
| 20260506014241 | 9 | 121 | 3.2 | 4.8 | 0.00 | 0.00 | 0.00 | 55 | 1008.1 |
| 20260506013738 | 9 | 133 | 1.6 | 4.8 | 0.00 | 0.00 | 0.00 | 54 | 1008.2 |
| 20260506013235 | 10 | 96 | 1.6 | 3.2 | 0.00 | 0.00 | 0.00 | 53 | 1008.0 |
| 20260506012731 | 10 | 62 | 0.0 | 4.8 | 0.00 | 0.00 | 0.00 | 52 | 1008.2 |
| 20260506012228 | 10 | 343 | 1.6 | 3.2 | 0.00 | 0.00 | 0.00 | 51 | 1008.0 |
| 20260506011726 | 10 | 157 | 0.0 | 6.4 | 0.00 | 0.00 | 0.00 | 51 | 1008.1 |
| 20260506011221 | 10 | 44 | 0.0 | 4.8 | 0.00 | 0.00 | 0.00 | 51 | 1007.9 |
| 20260506010720 | 10 | 89 | 0.0 | 4.8 | 0.00 | 0.00 | 0.00 | 50 | 1008.0 |
| 20260506010217 | 10 | 150 | 1.6 | 6.4 | 0.00 | 0.00 | 0.00 | 50 | 1007.9 |
| 20260506005715 | 10 | 48 | 3.2 | 4.8 | 0.00 | 0.00 | 0.00 | 50 | 1008.1 |
| 20260506005211 | 10 | 115 | 1.6 | 3.2 | 0.00 | 0.00 | 0.00 | 49 | 1008.1 |
| 20260506004707 | 10 | 109 | 0.0 | 6.4 | 0.00 | 0.00 | 0.00 | 48 | 1008.0 |
| 20260506004205 | 10 | 242 | 0.0 | 4.8 | 0.00 | 0.00 | 0.00 | 48 | 1008.0 |
| 20260506003700 | 10 | 176 | 3.2 | 4.8 | 0.00 | 0.00 | 0.00 | 49 | 1008.0 |
| 20260506003157 | 10 | 156 | 1.6 | 4.8 | 0.00 | 0.00 | 0.00 | 48 | 1008.1 |
| 20260506002653 | 10 | 267 | 1.6 | 12.9 | 0.00 | 0.00 | 0.00 | 47 | 1008.0 |
| 20260506002149 | 10 | 355 | 3.2 | 9.7 | 0.00 | 0.00 | 0.00 | 48 | 1008.2 |
| 20260506001645 | 10 | 162 | 4.8 | 9.7 | 0.00 | 0.00 | 0.00 | 48 | 1007.9 |
| 20260506001143 | 10 | 180 | 3.2 | 6.4 | 0.00 | 0.00 | 0.00 | 48 | 1008.0 |
| 20260506000640 | 10 | 277 | 4.8 | 9.7 | 0.00 | 0.00 | 0.00 | 49 | 1007.8 |
| 20260506000137 | 10 | 40 | 1.6 | 3.2 | 0.00 | 0.00 | 0.00 | 49 | 1007.9 |
| 20260505235635 | 11 | 5 | 1.6 | 6.4 | 0.00 | 0.00 | 0.00 | 48 | 1007.8 |
| 20260505235132 | 11 | 117 | 3.2 | 8.0 | 0.00 | 0.00 | 0.00 | 47 | 1008.0 |
| 20260505234629 | 11 | 192 | 4.8 | 8.0 | 0.00 | 0.00 | 0.00 | 46 | 1007.6 |
| 20260505234125 | 11 | 246 | 0.0 | 8.0 | 0.00 | 0.00 | 0.00 | 46 | 1007.4 |
| 20260505233623 | 11 | 154 | 8.0 | 16.1 | 0.00 | 0.00 | 0.00 | 46 | 1007.6 |
| 20260505233120 | 11 | 102 | 0.0 | 4.8 | 0.00 | 0.00 | 0.00 | 47 | 1007.4 |
| 20260505232618 | 11 | 107 | 4.8 | 6.4 | 0.00 | 0.00 | 0.00 | 45 | 1007.4 |
| 20260505232115 | 11 | 192 | 4.8 | 8.0 | 0.00 | 0.00 | 0.00 | 43 | 1007.3 |
| 20260505231612 | 11 | 307 | 1.6 | 11.3 | 0.00 | 0.00 | 0.00 | 44 | 1007.6 |
| 20260505231111 | 11 | 192 | 3.2 | 8.0 | 0.00 | 0.00 | 0.00 | 44 | 1007.3 |
| 20260505230608 | 11 | 199 | 4.8 | 8.0 | 0.00 | 0.00 | 0.00 | 45 | 1007.3 |
| 20260505230104 | 11 | 23 | 4.8 | 12.9 | 0.00 | 0.00 | 0.00 | 44 | 1007.4 |
| 20260505225601 | 11 | 304 | 0.0 | 4.8 | 0.00 | 0.00 | 0.00 | 45 | 1007.2 |
| 20260505225057 | 11 | 251 | 1.6 | 12.9 | 0.00 | 0.00 | 0.00 | 44 | 1007.5 |
| 20260505224554 | 12 | 118 | 6.4 | 9.7 | 0.00 | 0.00 | 0.00 | 43 | 1007.4 |
| 20260505224051 | 12 | 149 | 6.4 | 9.7 | 0.00 | 0.00 | 0.00 | 43 | 1007.6 |
| 20260505223548 | 12 | 68 | 1.6 | 8.0 | 0.00 | 0.00 | 0.00 | 45 | 1007.4 |
| 20260505223044 | 12 | 39 | 0.0 | 8.0 | 0.00 | 0.00 | 0.00 | 47 | 1007.4 |
| 20260505222541 | 12 | 150 | 0.0 | 8.0 | 0.00 | 0.00 | 0.00 | 45 | 1007.4 |
| 20260505222037 | 12 | 232 | 3.2 | 11.3 | 0.00 | 0.00 | 0.00 | 45 | 1007.5 |
| 20260505221534 | 12 | 181 | 3.2 | 4.8 | 0.00 | 0.00 | 0.00 | 45 | 1007.3 |
| 20260505221031 | 12 | 156 | 8.0 | 8.0 | 0.00 | 0.00 | 0.00 | 46 | 1007.3 |
| 20260505220528 | 12 | 326 | 1.6 | 11.3 | 0.00 | 0.00 | 0.00 | 46 | 1007.4 |
| 20260505220026 | 12 | 175 | 4.8 | 11.3 | 0.00 | 0.00 | 0.00 | 47 | 1007.4 |
| 20260505215524 | 12 | 345 | 4.8 | 9.7 | 0.00 | 0.00 | 0.00 | 51 | 1007.3 |
| 20260505215021 | 12 | 111 | 3.2 | 11.3 | 0.00 | 0.00 | 0.00 | 51 | 1007.5 |
| 20260505214519 | 12 | 179 | 4.8 | 8.0 | 0.00 | 0.00 | 0.00 | 51 | 1007.3 |
| 20260505214016 | 12 | 181 | 4.8 | 9.7 | 0.00 | 0.00 | 0.00 | 55 | 1007.5 |
| 20260505213514 | 12 | 164 | 1.6 | 4.8 | 0.00 | 0.00 | 0.00 | 56 | 1007.4 |
| 20260505213010 | 12 | 209 | 4.8 | 8.0 | 0.00 | 0.00 | 0.00 | 58 | 1007.4 |
| 20260505212506 | 12 | 185 | 6.4 | 11.3 | 0.00 | 0.00 | 0.00 | 58 | 1007.5 |
| 20260505212003 | 12 | 152 | 4.8 | 14.5 | 0.00 | 0.00 | 0.00 | 58 | 1007.3 |
| 20260505211501 | 12 | 162 | 11.3 | 17.7 | 0.00 | 0.00 | 0.00 | 58 | 1007.4 |
| 20260505210957 | 12 | 57 | 3.2 | 9.7 | 0.00 | 0.00 | 0.00 | 59 | 1007.4 |
| 20260505210454 | 12 | 254 | 1.6 | 12.9 | 0.00 | 0.00 | 0.00 | 57 | 1007.4 |
| 20260505205950 | 12 | 155 | 6.4 | 11.3 | 0.00 | 0.00 | 0.00 | 55 | 1007.5 |
| 20260505205449 | 12 | 14 | 3.2 | 8.0 | 0.00 | 0.00 | 0.00 | 57 | 1007.6 |
| 20260505204945 | 12 | 185 | 3.2 | 12.9 | 0.00 | 0.00 | 0.00 | 54 | 1007.3 |
| 20260505204444 | 12 | 181 | 3.2 | 11.3 | 0.00 | 0.00 | 0.00 | 56 | 1007.4 |
| 20260505203940 | 12 | 310 | 0.0 | 8.0 | 0.00 | 0.00 | 0.00 | 57 | 1007.4 |
| 20260505203437 | 12 | 144 | 0.0 | 6.4 | 0.00 | 0.00 | 0.00 | 58 | 1007.4 |
| 20260505202933 | 12 | 178 | 8.0 | 14.5 | 0.00 | 0.00 | 0.00 | 57 | 1007.5 |
| 20260505202430 | 12 | 130 | 3.2 | 8.0 | 0.00 | 0.00 | 0.00 | 59 | 1007.5 |
| 20260505201926 | 12 | 314 | 3.2 | 8.0 | 0.00 | 0.00 | 0.00 | 58 | 1007.4 |
| 20260505201423 | 12 | 173 | 0.0 | 9.7 | 0.00 | 0.00 | 0.00 | 57 | 1007.6 |
| 20260505200921 | 12 | 8 | 3.2 | 17.7 | 0.00 | 0.00 | 0.00 | 55 | 1007.5 |
| 20260505200418 | 12 | 148 | 0.0 | 17.7 | 0.00 | 0.00 | 0.00 | 54 | 1007.5 |
| 20260505195914 | 12 | 331 | 0.0 | 11.3 | 0.00 | 0.00 | 0.00 | 55 | 1007.4 |
| 20260505195411 | 12 | 297 | 3.2 | 9.7 | 0.00 | 0.00 | 0.00 | 55 | 1007.4 |
| 20260505194908 | 12 | 163 | 4.8 | 16.1 | 0.00 | 0.00 | 0.00 | 55 | 1007.4 |
| 20260505194406 | 13 | 174 | 3.2 | 8.0 | 0.00 | 0.00 | 0.00 | 57 | 1007.3 |
| 20260505193906 | 13 | 199 | 6.4 | 14.5 | 0.00 | 0.00 | 0.00 | 56 | 1007.4 |
| 20260505193404 | 13 | 141 | 3.2 | 8.0 | 0.00 | 0.00 | 0.00 | 65 | 1007.5 |
| 20260505192901 | 12 | 328 | 0.0 | 4.8 | 0.00 | 0.00 | 0.00 | 65 | 1007.5 |
| 20260505192359 | 12 | 193 | 1.6 | 9.7 | 0.00 | 0.00 | 0.00 | 66 | 1007.5 |
| 20260505191857 | 12 | 11 | 4.8 | 9.7 | 0.00 | 0.00 | 0.00 | 64 | 1007.7 |
| 20260505191355 | 12 | 214 | 6.4 | 9.7 | 0.00 | 0.00 | 0.00 | 65 | 1007.5 |
| 20260505190852 | 12 | 283 | 0.0 | 11.3 | 0.00 | 0.00 | 0.00 | 67 | 1007.4 |
| 20260505190347 | 12 | 14 | 1.6 | 9.7 | 0.00 | 0.00 | 0.00 | 65 | 1007.5 |
| 20260505185843 | 13 | 194 | 4.8 | 11.3 | 0.00 | 0.00 | 0.00 | 62 | 1007.4 |
| 20260505185340 | 13 | 177 | 3.2 | 8.0 | 0.00 | 0.00 | 0.00 | 63 | 1007.6 |
| 20260505184836 | 13 | 3 | 0.0 | 6.4 | 0.00 | 0.00 | 0.00 | 63 | 1007.5 |
| 20260505184333 | 12 | 204 | 3.2 | 14.5 | 0.00 | 0.00 | 0.00 | 62 | 1007.6 |
| 20260505183830 | 12 | 282 | 1.6 | 9.7 | 0.00 | 0.00 | 0.00 | 62 | 1007.6 |
| 20260505183327 | 12 | 301 | 4.8 | 17.7 | 0.00 | 0.00 | 0.00 | 64 | 1007.7 |
| 20260505182823 | 13 | 325 | 4.8 | 12.9 | 0.00 | 0.00 | 0.00 | 61 | 1007.3 |
| 20260505182320 | 13 | 333 | 4.8 | 11.3 | 0.00 | 0.00 | 0.00 | 62 | 1007.1 |
| 20260505181817 | 13 | 153 | 1.6 | 8.0 | 0.00 | 0.00 | 0.00 | 63 | 1007.1 |
| 20260505181314 | 13 | 170 | 8.0 | 19.3 | 0.00 | 0.00 | 0.00 | 60 | 1007.1 |
| 20260505180811 | 13 | 151 | 3.2 | 8.0 | 0.00 | 0.00 | 0.00 | 64 | 1007.1 |
| 20260505180307 | 13 | 105 | 6.4 | 12.9 | 0.00 | 0.00 | 0.00 | 64 | 1007.0 |
| 20260505175804 | 13 | 152 | 1.6 | 8.0 | 0.00 | 0.00 | 0.00 | 65 | 1006.8 |
| 20260505175300 | 13 | 336 | 3.2 | 9.7 | 0.00 | 0.00 | 0.00 | 64 | 1007.0 |
| 20260505174757 | 13 | 79 | 3.2 | 6.4 | 0.00 | 0.00 | 0.00 | 66 | 1006.8 |
| 20260505174254 | 13 | 217 | 3.2 | 8.0 | 0.00 | 0.00 | 0.00 | 64 | 1006.8 |
| 20260505173750 | 13 | 334 | 3.2 | 9.7 | 0.00 | 0.00 | 0.00 | 64 | 1006.9 |
| 20260505173247 | 12 | 186 | 1.6 | 9.7 | 0.00 | 0.00 | 0.00 | 67 | 1006.8 |
| 20260505172744 | 12 | 321 | 3.2 | 11.3 | 0.00 | 0.00 | 0.00 | 66 | 1006.9 |
| 20260505172241 | 12 | 304 | 3.2 | 4.8 | 0.00 | 0.00 | 0.00 | 70 | 1007.1 |
| 20260505171741 | 12 | 306 | 1.6 | 4.8 | 0.00 | 0.00 | 0.00 | 71 | 1007.1 |
| 20260505171238 | 12 | 227 | 3.2 | 8.0 | 0.00 | 0.00 | 0.00 | 69 | 1006.6 |
| 20260505170734 | 12 | 155 | 1.6 | 9.7 | 0.00 | 0.00 | 0.00 | 71 | 1006.7 |
| 20260505170232 | 12 | 15 | 1.6 | 4.8 | 0.00 | 0.00 | 0.00 | 73 | 1006.7 |
| 20260505165727 | 11 | 158 | 4.8 | 8.0 | 0.00 | 0.00 | 0.00 | 75 | 1006.7 |